Alabaster, AL

2:24 AM CDT on July 21, 2017 (GMT -0500)
Shelby County

Weather History for KEET - May, 2013

Change the Weather History Date:

Friday, May 24, 2013

  Actual Average Record
Temperature  
Mean Temperature 68 °F 73 °F  
Max Temperature 79 °F 83 °F 95 °F (1960)
Min Temperature 57 °F 62 °F 48 °F (1963)
Cooling Degree Days 3 8  
Month to date cooling degree days 106 133  
Year to date cooling degree days 179 208  
Growing Degree Days 20 (Base 50)    
Moisture  
Dew Point 53 °F    
Average Humidity 59    
Maximum Humidity 86    
Minimum Humidity 32    
Precipitation  
Precipitation 0.00 in 0.16 in 1.86 in (1955)
Month to date precipitation 3.71 3.39  
Year to date precipitation 29.00 22.84  
Sea Level Pressure  
Sea Level Pressure 30.16 in    
Wind  
Wind Speed 5 mph (North)    
Max Wind Speed 14 mph    
Max Gust Speed 21 mph    
Visibility 10 miles    
Events      
T = Trace of Precipitation, MM = Missing Value Source: NWS Daily Summary

Daily Weather History Graph

Daily Weather History Graph

Search for Another Location

Airport or City:

Trip Planner

Search our weather history database for the weather conditions in past years. The results will help you decide how hot, cold, wet, or windy it might be!

Date:

Astronomy

May. 24, 2013 Rise Set
Actual Time 5:41 AM CDT 7:46 PM CDT
Civil Twilight 5:14 AM CDT 8:14 PM CDT
Nautical Twilight 4:40 AM CDT 8:48 PM CDT
Astronomical Twilight 4:03 AM CDT 9:24 PM CDT
Moon 7:29 PM CDT (5/24) 5:10 AM CDT (5/24)
Length of Visible Light 15h 00m
Length of Day
14h 04m
Full, 100% of the Moon is Illuminated
May 24
Full
May 24
Full
May 31
Last Quarter
Jun 8
New
Jun 16
First Quarter

Hourly Weather History & Observations

Time (CDT) Temp. Dew Point Humidity Pressure Visibility Wind Dir Wind Speed Gust Speed Precip Events Conditions
12:53 AM 69.1 °F 60.1 °F 73% 30.04 in 10.0 mi NW 3.5 mph - N/A   Clear
1:53 AM 68.0 °F 59.0 °F 73% 30.05 in 10.0 mi NNW 4.6 mph - N/A   Clear
2:53 AM 68.0 °F 57.0 °F 68% 30.06 in 10.0 mi North 6.9 mph - N/A   Clear
3:53 AM 66.9 °F 55.9 °F 68% 30.07 in 10.0 mi Calm Calm - N/A   Clear
4:53 AM 64.9 °F 55.9 °F 73% 30.09 in 10.0 mi Calm Calm - N/A   Clear
5:53 AM 64.0 °F 55.0 °F 73% 30.11 in 10.0 mi Calm Calm - N/A   Clear
6:53 AM 64.9 °F 55.9 °F 73% 30.13 in 10.0 mi North 3.5 mph - N/A   Clear
7:53 AM 66.0 °F 55.9 °F 70% 30.14 in 10.0 mi North 8.1 mph - N/A   Clear
8:53 AM 69.1 °F 55.9 °F 63% 30.18 in 10.0 mi Variable 4.6 mph - N/A   Clear
9:53 AM 72.0 °F 55.0 °F 55% 30.18 in 10.0 mi NNE 10.4 mph 19.6 mph N/A   Clear
10:53 AM 73.9 °F 55.9 °F 53% 30.19 in 10.0 mi North 9.2 mph 19.6 mph N/A   Clear
11:53 AM 73.9 °F 55.0 °F 52% 30.20 in 10.0 mi NNW 9.2 mph 18.4 mph N/A   Clear
12:53 PM 75.0 °F 53.1 °F 46% 30.19 in 10.0 mi Variable 6.9 mph - N/A   Clear
1:53 PM 77.0 °F 53.1 °F 43% 30.20 in 10.0 mi NNW 9.2 mph - N/A   Clear
2:53 PM 77.0 °F 48.9 °F 37% 30.19 in 10.0 mi North 8.1 mph 17.3 mph N/A   Clear
3:53 PM 78.1 °F 46.9 °F 33% 30.19 in 10.0 mi North 9.2 mph - N/A   Clear
4:53 PM 78.1 °F 46.9 °F 33% 30.17 in 10.0 mi North 6.9 mph - N/A   Clear
5:53 PM 77.0 °F 46.9 °F 34% 30.17 in 10.0 mi Variable 5.8 mph - N/A   Clear
6:53 PM 75.0 °F 46.9 °F 37% 30.17 in 10.0 mi Variable 4.6 mph - N/A   Clear
7:53 PM 71.1 °F 50.0 °F 47% 30.19 in 10.0 mi Calm Calm - N/A   Clear
8:53 PM 66.9 °F 48.9 °F 52% 30.20 in 10.0 mi Calm Calm - N/A   Clear
9:53 PM 66.0 °F 48.9 °F 54% 30.22 in 10.0 mi Calm Calm - N/A   Clear
10:53 PM 61.0 °F 55.0 °F 81% 30.23 in 10.0 mi Calm Calm - N/A   Clear
11:53 PM 57.9 °F 54.0 °F 87% 30.22 in 10.0 mi Calm Calm - N/A   Clear